• Join FlightAware (Why Join?)
  • Login
  • US Flag 
02:24PM EST


 

Airport Tracker/Info


-or-


 

Live Flight TrackerFlight Track Log ✈ UCA3596 ✈ 11-Oct-2013 ✈ KBGM - KIAD

Flight Track Log - Related Links

Times and Time Zones

All times are in EDT time to prevent confusion due to time zone crossing. See the UCA3596 flight status page for this flight to view local times or setup timezone preferences in your user account.

Time Position Orientation Groundspeed Altitude Reporting Facility
EDT Latitude Longitude Course Direction KTS MPH feet Rate Location/Type
03:33PM 42.2297 -76.0275 206° Southwest 256 295 3,200  Level New York Center
03:34PM 42.1797 -76.0739 215° Southwest 200 230 4,200 1,100 Climbing New York Center
03:35PM 42.1344 -76.1092 210° Southwest 210 242 5,400 1,250 Climbing New York Center
03:36PM 42.0867 -76.1528 214° Southwest 224 258 6,700 1,250 Climbing New York Center
03:37PM 42.0347 -76.1961 212° Southwest 224 258 7,900 1,250 Climbing New York Center
03:38PM 41.8035 -76.2409 206° Southwest  Level FlightAware Approximate
03:38PM 41.9828 -76.2367 210° Southwest 229 264 9,200  Level New York Center
03:39PM 41.9264 -76.2847 212° Southwest 224 258 10,600 1,300 Climbing New York Center
03:40PM 41.8744 -76.3278 212° Southwest 224 258 11,800 1,200 Climbing New York Center
03:41PM 41.8247 -76.3683 211° Southwest 224 258 13,000 1,100 Climbing New York Center
03:42PM 41.7772 -76.4033 209° Southwest 218 251 14,000 1,100 Climbing New York Center
03:43PM 41.7156 -76.4314 199° South 218 251 15,200 1,000 Climbing New York Center
03:44PM 41.6603 -76.4572 199° South 213 245 16,000 400 Climbing New York Center
03:45PM 41.5983 -76.4881 200° South 222 255 16,000  Level New York Center
03:46PM 41.5386 -76.5189 201° Southwest 250 288 16,000  Level New York Center
03:47PM 41.4681 -76.5544 201° Southwest 268 308 16,000  Level New York Center
03:48PM 41.3892 -76.5919 200° South 278 320 16,000  Level New York Center
03:49PM 41.3189 -76.6244 199° South 278 320 16,000  Level New York Center
03:50PM 41.2503 -76.6600 201° Southwest 278 320 16,000  Level New York Center
03:51PM 41.1775 -76.6978 201° Southwest 278 320 16,000  Level New York Center
03:52PM 41.1050 -76.7328 200° South 278 320 16,000  Level New York Center
03:53PM 41.0344 -76.7678 201° Southwest 278 320 16,000  Level New York Center
03:54PM 40.9619 -76.8025 200° South 278 320 16,000  Level New York Center
03:55PM 40.8914 -76.8350 199° South 278 320 16,000  Level New York Center
03:56PM 40.8208 -76.8697 200° South 278 320 16,000  Level New York Center
03:57PM 40.7464 -76.8989 197° South 278 320 16,000  Level New York Center
03:58PM 40.6744 -76.9225 194° South 272 313 16,000  Level New York Center
03:59PM 40.6025 -76.9433 192° South 267 307 16,000  Level New York Center
04:00PM 40.5325 -76.9644 193° South 262 302 16,000  Level New York Center
04:01PM 40.4667 -76.9858 194° South 262 302 16,000 -300 Level New York Center
04:02PM 40.3969 -77.0067 193° South 262 302 15,400 -850 Descending New York Center
04:03PM 40.3228 -77.0300 193° South 267 307 14,300 -1,200 Descending New York Center
04:04PM 40.2483 -77.0558 195° South 272 313 13,000 -1,074 Descending New York Center
04:06PM 40.1167 -77.1000 194° South 235 270 10,900 -1,011 Descending Potomac TRACON
04:07PM 40.0333 -77.1333 197° South 270 311 9,800 -950 Descending Potomac TRACON
04:08PM 39.9667 -77.1667 201° Southwest 281 323 9,000 -545 Descending Potomac TRACON
04:09PM 39.9000 -77.2000 201° Southwest 264 304 8,700 -446 Descending Potomac TRACON
04:10PM 39.8333 -77.2333 201° Southwest 269 310 8,100 -350 Descending Potomac TRACON
04:11PM 39.7500 -77.2833 205° Southwest 267 307 8,000 -50 Descending Potomac TRACON
04:12PM 39.6833 -77.3000 191° South 258 297 8,000 -99 Level Potomac TRACON
04:13PM 39.6167 -77.3333 201° Southwest 256 295 7,800 -347 Descending Potomac TRACON
04:14PM 39.5500 -77.3500 191° South 262 302 7,300 -397 Descending Potomac TRACON
04:15PM 39.4833 -77.3500 180° South 262 302 7,000 -149 Descending Potomac TRACON
04:16PM 39.4000 -77.3667 189° South 255 293 7,000 -600 Level Potomac TRACON
04:17PM 39.3333 -77.3667 180° South 269 310 5,800 -1,043 Descending Potomac TRACON
04:18PM 39.2667 -77.3667 180° South 257 296 5,000 -835 Descending Potomac TRACON
04:19PM 39.2000 -77.3667 180° South 241 277 4,200 -500 Descending Potomac TRACON
04:20PM 39.1333 -77.3500 169° South 234 269 4,000 -100 Descending Potomac TRACON
04:21PM 39.0667 -77.3500 180° South 240 276 4,000  Level Potomac TRACON
04:22PM 39.0000 -77.3500 180° South 242 278 4,000  Level Potomac TRACON
04:23PM 38.9333 -77.3500 180° South 240 276 4,000 -149 Level Potomac TRACON
04:24PM 38.8667 -77.3667 191° South 206 237 3,700 -429 Descending Potomac TRACON
04:25PM 38.8000 -77.3667 180° South 224 258 3,100 -350 Descending Potomac TRACON
04:26PM 38.7500 -77.3667 180° South 224 258 3,000 -52 Descending Potomac TRACON
04:27PM 38.6833 -77.3667 180° South 228 262 3,000  Level Potomac TRACON
04:28PM 38.6833 -77.4333 270° West 209 241 3,000  Level Potomac TRACON
04:29PM 38.7333 -77.4333 360° North 166 191 3,000  Level Potomac TRACON
04:30PM 38.7833 -77.4333 360° North 147 169 3,000 -350 Level Potomac TRACON
04:31PM 38.8167 -77.4333 360° North 147 169 2,300 -595 Descending Potomac TRACON
04:32PM 38.8500 -77.4333 360° North 99 114 1,800 -545 Descending Potomac TRACON
04:33PM 38.8833 -77.4333 360° North 98 113 1,200 -550 Descending Potomac TRACON
04:34PM 38.9000 -77.4333 360° North 101 116 700 -500 Descending Potomac TRACON